period_start,C,m1,H,J0,J1,J2,J3,J4,J5,JA,JB,JC,JD,JJ,JK,JN,#
2017-04-19 00:02:00,0.02,1.21,0.00,22.32,25.68,29.54,14.63,48.42,1018.08,2035.10,3069.32,2771.89,3156.03,600.45,598.68,18.60,0000 0000 0000 0000 000000
2017-04-19 00:07:01,0.05,1.21,0.00,22.36,25.70,29.60,14.55,48.44,1018.08,2035.07,3068.39,2771.09,3155.33,599.89,598.07,18.65,0000 0000 0000 0000 000000
2017-04-19 00:12:02,0.05,1.21,0.00,22.41,25.72,29.59,14.56,48.42,1018.05,2035.08,3067.27,2770.55,3154.68,600.26,598.41,18.70,0000 0000 0000 0000 000000
2017-04-19 00:17:04,0.03,1.22,0.00,22.45,25.75,29.62,14.55,48.40,1017.99,2035.05,3066.32,2769.96,3153.95,599.63,597.59,18.75,0000 0000 0000 0000 000000
2017-04-19 00:22:05,0.06,1.22,0.00,22.51,25.78,29.62,14.60,48.45,1017.86,2035.03,3065.15,2769.12,3153.10,599.71,597.47,18.80,0000 0000 0000 0000 000000
2017-04-19 00:27:06,0.05,1.22,0.00,22.56,25.81,29.61,14.47,48.42,1017.77,2035.03,3064.24,2768.60,3152.37,599.46,597.08,18.85,0000 0000 0000 0000 000000
2017-04-19 00:32:07,0.02,1.22,0.00,22.59,25.84,29.68,14.55,48.42,1017.83,2035.00,3063.78,2768.01,3151.74,600.18,597.90,18.90,0000 0000 0000 0000 000000
2017-04-19 00:37:09,0.04,1.23,0.00,22.56,25.87,29.68,14.52,48.46,1017.72,2035.00,3062.82,2767.31,3150.98,599.65,597.24,18.95,0000 0000 0000 0000 000000
2017-04-19 00:42:10,0.05,1.23,0.00,22.59,25.91,29.69,14.61,48.58,1017.68,2035.00,3061.92,2766.73,3150.16,600.28,597.75,19.00,0000 0000 0000 0000 000000
2017-04-19 00:47:11,0.04,1.23,0.00,22.68,25.94,29.73,14.55,48.51,1017.70,2034.98,3061.00,2766.02,3149.30,599.79,597.19,19.05,0000 0000 0000 0000 000000
2017-04-19 00:52:13,0.00,1.23,0.00,22.73,25.98,29.74,14.57,48.55,1017.69,2034.85,3060.98,2765.66,3148.89,599.91,597.04,19.10,0000 0000 0000 0000 000000
2017-04-19 00:57:14,-0.01,1.23,0.00,22.74,26.02,29.77,14.58,48.49,1017.67,2034.36,3060.20,2764.99,3148.06,600.21,597.37,19.15,0000 0000 0000 0000 000000
2017-04-19 01:02:16,0.04,1.23,0.00,22.74,26.06,29.79,14.61,48.61,1017.83,2034.03,3059.33,2764.22,3147.29,600.12,597.51,19.20,0000 0000 0000 0000 000000
2017-04-19 01:07:17,0.04,1.23,0.00,22.82,26.10,29.83,14.60,48.57,1017.82,2034.00,3058.35,2763.74,3146.60,600.18,597.27,19.25,0000 0000 0000 0000 000000
2017-04-19 01:12:19,0.03,1.24,0.00,22.88,26.14,29.86,14.53,48.50,1017.66,2034.00,3057.52,2763.03,3145.94,600.00,596.90,19.30,0000 0000 0000 0000 000000
2017-04-19 01:17:20,0.06,1.24,0.00,22.86,26.18,29.89,14.48,48.44,1017.61,2034.00,3056.54,2762.45,3145.08,599.88,596.80,19.35,0000 0000 0000 0000 000000
2017-04-19 01:22:21,0.03,1.24,0.00,22.87,26.21,29.91,14.53,48.64,1017.62,2033.97,3055.64,2761.90,3144.15,599.38,596.31,19.40,0000 0000 0000 0000 000000
2017-04-19 01:27:23,-0.03,1.24,0.00,22.94,26.25,29.96,14.46,48.46,1017.63,2033.33,3055.75,2761.15,3143.63,599.93,596.57,19.45,0000 0000 0000 0000 000000
2017-04-19 01:32:24,0.03,1.24,0.00,23.02,26.29,29.98,14.52,48.58,1017.68,2033.03,3054.75,2760.73,3142.90,600.33,596.95,19.50,0000 0000 0000 0000 000000
2017-04-19 01:37:25,0.04,1.24,0.00,23.00,26.32,30.02,14.57,48.52,1017.75,2033.00,3053.82,2760.02,3142.09,600.03,596.75,19.55,0000 0000 0000 0000 000000
2017-04-19 01:42:26,0.05,1.24,0.00,23.03,26.36,30.06,14.43,48.57,1017.86,2033.00,3052.93,2759.35,3141.25,599.65,596.30,19.60,0000 0000 0000 0000 000000
2017-04-19 01:47:28,0.04,1.25,0.00,23.12,26.39,30.09,14.53,48.51,1018.02,2032.98,3051.97,2758.83,3140.52,599.90,596.48,19.65,0000 0000 0000 0000 000000
2017-04-19 01:52:29,0.03,1.25,0.00,23.16,26.43,30.12,14.52,48.56,1018.01,2032.89,3051.06,2758.05,3139.85,600.03,596.48,19.70,0000 0000 0000 0000 000000
2017-04-19 01:57:30,-0.00,1.25,0.00,23.17,26.46,30.14,14.46,48.49,1017.86,2032.29,3050.18,2757.40,3139.02,599.70,596.12,19.75,0000 0000 0000 0000 000000
2017-04-19 02:02:31,0.03,1.25,0.00,23.24,26.50,30.19,14.47,48.43,1017.65,2032.02,3049.28,2756.86,3138.15,599.51,595.77,19.80,0000 0000 0000 0000 000000
2017-04-19 02:07:32,0.05,1.25,0.00,23.27,26.53,30.22,14.53,48.45,1017.69,2032.01,3048.20,2756.06,3137.30,599.84,596.03,19.85,0000 0000 0000 0000 000000
2017-04-19 02:12:34,0.05,1.25,0.00,23.28,26.56,30.24,14.57,48.38,1017.82,2032.00,3047.49,2755.43,3136.56,600.31,596.46,19.90,0000 0000 0000 0000 000000
2017-04-19 02:17:35,0.05,1.26,0.00,23.35,26.59,30.30,14.56,48.50,1017.79,2031.99,3046.18,2754.73,3135.72,600.19,596.24,19.95,0000 0000 0000 0000 000000
2017-04-19 02:22:37,0.10,1.26,0.00,23.45,26.63,30.31,14.47,48.46,1017.75,2031.99,3044.50,2753.50,3134.49,599.75,595.54,20.00,0000 0000 0000 0000 000000
2017-04-19 02:27:38,0.08,1.27,0.00,23.46,26.66,30.36,14.52,48.50,1017.77,2031.96,3042.74,2752.31,3133.07,599.97,595.78,20.05,0000 0000 0000 0000 000000
2017-04-19 02:32:39,0.09,1.27,0.00,23.46,26.70,30.39,14.51,48.42,1017.76,2031.88,3040.75,2751.12,3131.64,600.22,596.01,20.10,0000 0000 0000 0000 000000
2017-04-19 02:37:41,0.01,1.27,0.00,23.49,26.74,30.43,14.56,48.54,1017.75,2031.35,3039.36,2750.02,3130.28,599.70,595.32,20.15,0000 0000 0000 0000 000000
2017-04-19 02:42:42,0.06,1.28,0.00,23.59,26.78,30.46,14.53,48.49,1017.84,2031.03,3037.96,2748.90,3129.04,599.87,595.34,20.20,0000 0000 0000 0000 000000
2017-04-19 02:47:44,0.07,1.28,0.00,23.62,26.82,30.49,14.49,48.52,1017.92,2031.00,3036.61,2747.85,3127.79,600.18,595.74,20.25,0000 0000 0000 0000 000000
2017-04-19 02:52:45,0.11,1.28,0.00,23.69,26.86,30.53,14.42,48.58,1017.94,2030.99,3034.77,2746.53,3126.27,599.63,595.06,20.30,0000 0000 0000 0000 000000
2017-04-19 02:57:46,0.07,1.29,0.00,23.76,26.91,30.55,14.46,48.36,1017.85,2030.91,3033.06,2745.29,3124.80,600.36,595.58,20.35,0000 0000 0000 0000 000000
2017-04-19 03:02:48,0.04,1.29,0.00,23.78,26.95,30.60,14.56,48.55,1017.94,2030.34,3031.07,2743.94,3123.33,600.52,595.75,20.40,0000 0000 0000 0000 000000
2017-04-19 03:07:49,0.09,1.30,0.00,23.80,27.00,30.66,14.55,48.44,1017.87,2030.06,3029.28,2742.60,3121.74,600.29,595.45,20.45,0000 0000 0000 0000 000000
2017-04-19 03:12:50,0.08,1.30,0.00,23.89,27.04,30.70,14.50,48.38,1017.71,2030.01,3027.56,2741.38,3120.28,600.36,595.17,20.50,0000 0000 0000 0000 000000
2017-04-19 03:17:52,0.15,1.31,0.00,23.95,27.09,30.74,14.45,48.57,1017.78,2029.99,3025.31,2739.59,3118.33,599.88,594.62,20.55,0000 0000 0000 0000 000000
2017-04-19 03:22:53,0.16,1.32,0.00,23.95,27.13,30.77,14.53,48.54,1017.77,2029.95,3022.20,2737.31,3115.70,600.49,595.30,20.60,0000 0000 0000 0000 000000
2017-04-19 03:27:54,0.12,1.32,0.00,24.35,27.19,30.84,14.53,48.55,1017.67,2029.62,3019.20,2735.16,3113.26,600.58,594.54,20.65,0000 0000 0000 0000 000000
2017-04-19 03:32:55,0.14,1.33,0.00,24.30,27.24,30.86,14.47,48.71,1017.64,2029.14,3015.97,2732.86,3110.66,600.50,594.41,20.70,0000 0000 0000 0000 000000
2017-04-19 03:37:57,0.17,1.34,0.00,24.37,27.29,30.86,14.45,48.75,1017.72,2029.00,3012.73,2730.43,3107.93,600.19,594.13,20.75,0000 0000 0000 0000 000000
2017-04-19 03:42:58,0.18,1.35,0.00,24.39,27.33,30.95,14.41,48.65,1017.67,2028.99,3009.58,2728.08,3105.28,600.13,594.01,20.81,0000 0000 0000 0000 000000
2017-04-19 03:47:59,0.15,1.35,0.00,24.31,27.37,31.00,14.49,48.42,1017.62,2028.93,3006.64,2725.83,3102.68,600.17,594.07,20.86,0000 0000 0000 0000 000000
2017-04-19 03:53:00,0.13,1.36,0.00,24.28,27.41,31.03,14.48,48.66,1017.64,2028.58,3003.58,2723.61,3100.18,599.89,593.90,20.91,0000 0000 0000 0000 000000
2017-04-19 03:58:01,0.12,1.37,0.00,24.26,27.43,31.07,14.43,48.60,1017.61,2028.26,3000.49,2721.47,3097.75,599.93,594.01,20.96,0000 0000 0000 0000 000000
2017-04-19 04:03:03,0.18,1.38,0.00,24.31,27.45,31.08,14.46,48.63,1017.61,2028.06,2997.30,2719.03,3094.97,600.09,594.16,21.01,0000 0000 0000 0000 000000
2017-04-19 04:08:04,0.20,1.39,0.00,24.34,27.47,31.07,14.44,48.52,1017.61,2028.00,2993.71,2716.27,3091.91,600.10,593.98,21.06,0000 0000 0000 0000 000000
2017-04-19 04:13:05,0.13,1.39,0.00,24.37,27.50,31.05,14.47,48.49,1017.61,2028.00,2991.17,2714.38,3089.74,600.10,593.96,21.11,0000 0000 0000 0000 000000
2017-04-19 04:18:07,0.10,1.40,0.00,24.70,27.52,30.99,14.40,48.53,1017.62,2027.99,2989.20,2712.89,3088.03,600.18,593.52,21.16,0000 0000 0000 0000 000000
2017-04-19 04:23:08,0.14,1.41,0.00,24.43,27.54,31.01,14.48,48.71,1017.63,2027.98,2986.66,2711.19,3086.06,600.50,594.29,21.21,0000 0000 0000 0000 000000
2017-04-19 04:28:10,0.13,1.41,0.00,24.56,27.56,31.02,14.42,48.77,1017.62,2027.96,2984.19,2709.44,3084.07,600.12,593.66,21.26,0000 0000 0000 0000 000000
2017-04-19 04:33:11,0.10,1.42,0.00,24.61,27.58,31.06,14.46,48.64,1017.62,2027.83,2982.02,2707.91,3082.40,600.38,593.53,21.31,0000 0000 0000 0000 000000
2017-04-19 04:38:12,0.09,1.42,0.00,24.70,27.60,31.01,14.44,48.55,1017.61,2027.76,2980.23,2706.54,3080.78,599.99,593.44,21.36,0000 0000 0000 0000 000000
2017-04-19 04:43:13,0.07,1.43,0.00,24.70,27.61,30.99,14.35,48.45,1017.60,2027.57,2978.32,2705.26,3079.29,599.79,593.00,21.41,0000 0000 0000 0000 000000
2017-04-19 04:48:14,0.07,1.43,0.00,24.70,27.62,30.98,14.43,48.67,1017.60,2027.35,2976.57,2703.92,3077.76,600.04,593.24,21.46,0000 0000 0000 0000 000000
2017-04-19 04:53:16,0.08,1.44,0.00,24.69,27.63,31.01,14.40,48.63,1017.59,2027.08,2974.80,2702.74,3076.45,600.04,593.29,21.51,0000 0000 0000 0000 000000
2017-04-19 04:58:17,0.07,1.44,0.00,24.63,27.64,31.02,14.42,48.58,1017.59,2027.03,2973.09,2701.64,3075.11,600.18,593.52,21.56,0000 0000 0000 0000 000000
2017-04-19 05:03:18,0.07,1.44,0.00,24.60,27.64,31.05,14.42,48.55,1017.59,2027.02,2971.75,2700.74,3074.03,599.92,593.38,21.61,0000 0000 0000 0000 000000
2017-04-19 05:08:19,0.05,1.45,0.00,24.63,27.65,31.05,14.40,48.71,1017.59,2027.02,2970.61,2699.92,3073.04,599.69,593.07,21.66,0000 0000 0000 0000 000000
2017-04-19 05:13:21,0.07,1.45,0.00,24.88,27.65,30.94,14.42,48.67,1017.59,2027.01,2969.35,2698.96,3071.99,600.04,592.84,21.71,0000 0000 0000 0000 000000
2017-04-19 05:18:22,0.07,1.45,0.00,24.60,27.65,30.90,14.37,48.82,1017.59,2027.00,2967.95,2698.02,3070.91,599.91,593.30,21.76,0000 0000 0000 0000 000000
2017-04-19 05:23:23,0.07,1.46,0.00,24.72,27.66,30.93,14.56,48.70,1017.59,2027.00,2966.66,2697.11,3069.90,600.44,593.65,21.81,0000 0000 0000 0000 000000
2017-04-19 05:28:24,0.07,1.46,0.00,24.82,27.67,30.92,14.36,48.66,1017.59,2027.00,2965.34,2696.21,3068.82,599.70,592.60,21.86,0000 0000 0000 0000 000000
2017-04-19 05:33:26,0.06,1.47,0.00,24.84,27.67,30.91,14.41,48.72,1017.59,2027.00,2964.03,2695.32,3067.86,599.98,593.03,21.91,0000 0000 0000 0000 000000
2017-04-19 05:38:27,0.05,1.47,0.00,24.86,27.67,30.91,14.41,48.72,1017.59,2027.00,2962.90,2694.76,3066.98,599.84,592.73,21.96,0000 0000 0000 0000 000000
2017-04-19 05:43:28,0.06,1.47,0.00,24.88,27.67,30.89,14.43,48.78,1017.59,2027.00,2961.69,2693.95,3066.07,600.12,593.00,22.01,0000 0000 0000 0000 000000
2017-04-19 05:48:30,0.06,1.47,0.00,24.89,27.67,30.88,14.41,48.72,1017.55,2027.00,2960.51,2693.10,3065.15,600.16,592.84,22.06,0000 0000 0000 0000 000000
2017-04-19 05:53:31,0.06,1.48,0.00,24.90,27.67,30.86,14.51,48.75,1017.49,2027.00,2959.33,2692.39,3064.27,600.22,592.83,22.11,0000 0000 0000 0000 000000
2017-04-19 05:58:32,0.06,1.48,0.00,24.92,27.67,30.82,14.33,48.77,1017.29,2027.00,2958.05,2691.66,3063.40,600.08,592.73,22.16,0000 0000 0000 0000 000000
2017-04-19 06:03:34,0.04,1.48,0.00,24.93,27.67,30.81,14.47,48.76,1017.28,2027.00,2957.06,2691.00,3062.56,599.94,592.47,22.21,0000 0000 0000 0000 000000
2017-04-19 06:08:35,0.05,1.49,0.00,24.96,27.66,30.79,14.35,48.73,1017.23,2027.00,2956.16,2690.20,3061.82,599.79,592.31,22.26,0000 0000 0000 0000 000000
2017-04-19 06:13:36,0.04,1.49,0.00,24.96,27.65,30.80,14.32,48.87,1017.17,2027.00,2955.10,2689.73,3060.99,600.22,592.66,22.31,0000 0000 0000 0000 000000
2017-04-19 06:18:37,0.05,1.49,0.00,25.01,27.65,30.74,14.30,48.81,1017.34,2027.00,2954.05,2689.03,3060.15,599.88,592.28,22.36,0000 0000 0000 0000 000000
2017-04-19 06:23:39,0.06,1.49,0.00,25.00,27.65,30.73,14.32,48.80,1017.43,2027.00,2953.08,2688.39,3059.46,600.00,592.52,22.41,0000 0000 0000 0000 000000
2017-04-19 06:28:40,0.05,1.50,0.00,25.01,27.65,30.71,14.37,48.81,1017.50,2027.00,2951.96,2687.75,3058.54,599.80,592.24,22.46,0000 0000 0000 0000 000000
2017-04-19 06:33:42,0.05,1.50,0.00,25.02,27.64,30.72,14.38,48.90,1017.42,2027.00,2950.77,2687.01,3057.69,600.07,592.55,22.51,0000 0000 0000 0000 000000
2017-04-19 06:38:43,0.05,1.50,0.00,25.03,27.62,30.73,14.48,49.00,1017.31,2027.00,2949.75,2686.32,3056.95,600.12,592.47,22.56,0000 0000 0000 0000 000000
2017-04-19 06:43:44,0.04,1.51,0.00,25.03,27.62,30.70,14.34,48.81,1017.23,2027.01,2948.78,2685.81,3056.16,600.23,592.57,22.61,0000 0000 0000 0000 000000
2017-04-19 06:48:45,0.05,1.51,0.00,25.04,27.62,30.69,14.37,48.86,1017.15,2027.00,2947.78,2685.05,3055.40,599.92,592.12,22.66,0000 0000 0000 0000 000000
2017-04-19 06:53:46,0.06,1.51,0.00,25.03,27.62,30.68,14.34,48.95,1017.12,2027.00,2946.77,2684.34,3054.59,599.80,592.06,22.71,0000 0000 0000 0000 000000
2017-04-19 06:58:48,0.04,1.51,0.00,25.03,27.61,30.66,14.39,48.83,1017.12,2027.00,2945.73,2683.83,3053.78,600.22,592.47,22.76,0000 0000 0000 0000 000000
2017-04-19 07:03:49,0.05,1.52,0.00,25.04,27.60,30.68,14.45,48.83,1017.11,2027.00,2944.73,2683.05,3052.98,600.17,592.52,22.81,0000 0000 0000 0000 000000
2017-04-19 07:08:50,0.06,1.52,0.00,25.06,27.60,30.66,14.40,48.80,1017.11,2027.00,2943.68,2682.40,3052.13,600.08,592.22,22.86,0000 0000 0000 0000 000000
2017-04-19 07:13:52,0.02,1.52,0.00,25.05,27.60,30.65,14.36,48.77,1017.11,2027.00,2942.87,2681.98,3051.58,600.11,592.27,22.91,0000 0000 0000 0000 000000
2017-04-19 07:18:53,0.06,1.53,0.00,25.05,27.59,30.64,14.31,48.95,1017.11,2027.01,2941.86,2681.21,3050.88,599.88,592.11,22.96,0000 0000 0000 0000 000000
2017-04-19 07:23:54,0.04,1.53,0.00,25.09,27.57,30.63,14.47,49.01,1017.12,2027.03,2940.88,2680.79,3050.08,600.35,592.50,23.01,0000 0000 0000 0000 000000
2017-04-19 07:28:55,0.05,1.53,0.00,25.07,27.57,30.61,14.36,48.94,1017.11,2027.04,2940.01,2680.05,3049.33,600.00,592.28,23.06,0000 0000 0000 0000 000000
2017-04-19 07:33:57,0.04,1.53,0.00,25.07,27.57,30.62,14.33,48.92,1017.11,2027.01,2939.22,2679.68,3048.73,600.04,592.25,23.11,0000 0000 0000 0000 000000
2017-04-19 07:38:58,0.04,1.54,0.00,25.10,27.56,30.61,14.37,48.98,1017.11,2027.05,2938.35,2679.02,3048.03,599.98,592.10,23.16,0000 0000 0000 0000 000000
2017-04-19 07:44:00,0.06,1.54,0.00,25.09,27.55,30.64,14.36,48.91,1017.11,2027.05,2937.44,2678.48,3047.40,599.86,592.01,23.21,0000 0000 0000 0000 000000
2017-04-19 07:49:01,0.04,1.54,0.00,25.11,27.55,30.64,14.42,48.84,1017.11,2027.08,2936.40,2677.99,3046.72,600.03,592.07,23.26,0000 0000 0000 0000 000000
2017-04-19 07:54:02,0.06,1.54,0.00,25.06,27.54,30.63,14.31,48.83,1017.11,2027.20,2935.62,2677.37,3046.01,599.93,592.13,23.31,0000 0000 0000 0000 000000
2017-04-19 07:59:03,0.04,1.55,0.00,25.06,27.52,30.62,14.34,48.87,1017.11,2027.18,2934.52,2676.91,3045.18,600.22,592.49,23.36,0000 0000 0000 0000 000000
2017-04-19 08:04:05,0.06,1.55,0.00,25.07,27.52,30.64,14.31,48.84,1017.11,2027.28,2933.62,2676.12,3044.63,599.92,592.06,23.41,0000 0000 0000 0000 000000
2017-04-19 08:09:06,0.05,1.55,0.00,25.10,27.50,30.63,14.33,48.80,1017.11,2027.26,2932.61,2675.63,3043.91,600.22,592.20,23.46,0000 0000 0000 0000 000000
2017-04-19 08:14:07,0.26,1.56,0.00,25.11,27.50,30.61,14.32,48.63,1017.11,2027.38,2929.60,2673.65,3041.64,599.91,592.04,23.51,0000 0000 0000 0000 000000
2017-04-19 08:19:09,0.21,1.57,0.00,25.13,27.49,30.62,14.22,48.70,1017.11,2027.56,2924.45,2670.48,3038.14,599.53,591.61,23.56,0000 0000 0000 0000 000000
2017-04-19 08:24:10,0.06,1.58,0.00,25.12,27.47,30.60,14.34,48.70,1017.11,2027.74,2923.34,2669.80,3037.23,599.94,592.07,23.61,0000 0000 0000 0000 000000
2017-04-19 08:29:11,0.11,1.58,0.00,25.06,27.47,30.57,14.35,48.64,1017.10,2027.87,2921.80,2668.75,3036.19,599.58,591.74,23.66,0000 0000 0000 0000 000000
2017-04-19 08:34:12,0.09,1.59,0.00,25.07,27.46,30.57,14.35,48.71,1017.10,2027.94,2919.87,2667.74,3034.80,599.70,591.84,23.71,0000 0000 0000 0000 000000
2017-04-19 08:39:13,0.08,1.59,0.00,25.10,27.45,30.58,14.42,48.70,1017.06,2027.96,2918.24,2666.69,3033.63,600.13,592.22,23.76,0000 0000 0000 0000 000000
2017-04-19 08:44:14,0.07,1.60,0.00,25.11,27.45,30.59,14.40,48.74,1017.06,2027.96,2916.75,2665.73,3032.47,599.85,591.88,23.81,0000 0000 0000 0000 000000
2017-04-19 08:49:16,0.07,1.60,0.00,24.97,27.44,30.57,14.36,48.63,1017.08,2027.99,2915.29,2664.81,3031.48,600.07,592.42,23.86,0000 0000 0000 0000 000000
2017-04-19 08:54:17,0.08,1.60,0.00,25.02,27.42,30.55,14.46,48.61,1017.09,2027.99,2913.69,2663.87,3030.27,599.98,592.28,23.91,0000 0000 0000 0000 000000
2017-04-19 08:59:18,0.06,1.61,0.00,25.07,27.42,30.55,14.39,48.70,1017.02,2027.99,2912.38,2662.99,3029.21,599.84,591.98,23.96,0000 0000 0000 0000 000000
2017-04-19 09:04:20,0.06,1.61,0.00,25.07,27.41,30.56,14.32,48.63,1016.89,2027.99,2911.26,2662.11,3028.30,599.84,591.90,24.01,0000 0000 0000 0000 000000
2017-04-19 09:09:21,0.07,1.61,0.00,24.99,27.40,30.52,14.34,48.67,1016.85,2027.99,2909.93,2661.45,3027.46,600.03,592.17,24.06,0000 0000 0000 0000 000000
2017-04-19 09:14:22,0.03,1.62,0.00,24.98,27.38,30.51,14.36,48.67,1016.79,2027.99,2908.85,2660.98,3026.83,600.08,592.32,24.11,0000 0000 0000 0000 000000
2017-04-19 09:19:24,0.06,1.62,0.00,25.01,27.36,30.51,14.36,48.57,1016.71,2027.99,2907.82,2660.18,3025.88,599.93,592.12,24.16,0000 0000 0000 0000 000000
2017-04-19 09:24:25,0.09,1.62,0.00,25.01,27.35,30.49,14.45,48.57,1016.64,2027.99,2906.24,2659.18,3024.73,600.43,592.40,24.21,0000 0000 0000 0000 000000
2017-04-19 09:29:26,0.09,1.63,0.00,25.01,27.32,30.47,14.22,48.51,1016.63,2027.99,2904.55,2658.06,3023.59,599.74,592.06,24.26,0000 0000 0000 0000 000000
2017-04-19 09:34:27,0.11,1.63,0.00,24.97,27.30,30.46,14.33,48.50,1016.63,2028.00,2902.77,2656.83,3022.06,599.81,591.99,24.31,0000 0000 0000 0000 000000
2017-04-19 09:39:28,0.13,1.64,0.00,24.97,27.28,30.46,14.37,48.48,1016.62,2028.00,2900.33,2655.28,3020.26,600.17,592.27,24.36,0000 0000 0000 0000 000000
2017-04-19 09:44:30,0.13,1.65,0.00,25.02,27.26,30.47,14.45,48.47,1016.62,2028.03,2897.90,2653.62,3018.42,600.42,592.33,24.41,0000 0000 0000 0000 000000
2017-04-19 09:49:31,0.14,1.65,0.00,24.92,27.24,30.46,14.37,48.52,1016.62,2028.05,2895.31,2651.93,3016.49,600.17,592.37,24.46,0000 0000 0000 0000 000000
2017-04-19 09:54:33,0.35,1.67,0.00,24.84,27.21,30.42,14.32,48.58,1016.62,2028.10,2889.23,2648.36,3012.46,600.01,592.31,24.51,0000 0000 0000 0000 000000
2017-04-19 09:59:34,0.20,1.68,0.00,24.95,27.19,30.41,14.21,48.48,1016.62,2028.21,2884.69,2645.60,3009.29,599.60,591.63,24.56,0000 0000 0000 0000 000000
2017-04-19 10:04:35,0.13,1.69,0.00,24.90,27.17,30.41,14.34,48.48,1016.62,2028.51,2882.40,2644.16,3007.72,600.02,592.32,24.61,0000 0000 0000 0000 000000
2017-04-19 10:09:37,0.69,1.71,0.00,24.84,27.15,30.40,14.34,48.52,1016.62,2028.76,2873.79,2639.13,3002.21,600.23,592.58,24.66,0000 0000 0000 0000 000000
2017-04-19 10:14:38,1.63,1.78,0.00,24.79,27.13,30.39,14.37,48.55,1016.61,2028.87,2842.62,2621.21,2982.29,600.09,592.54,24.71,0000 0000 0000 0000 000000
2017-04-19 10:19:39,0.28,1.82,0.00,24.86,27.11,30.38,14.30,48.49,1016.60,2028.95,2832.78,2615.72,2976.02,600.11,592.46,24.76,0000 0000 0000 0000 000000
2017-04-19 10:24:41,0.10,1.83,0.00,24.89,27.10,30.38,14.42,48.65,1016.59,2028.98,2830.19,2614.08,2974.17,600.44,592.58,24.81,0000 0000 0000 0000 000000
2017-04-19 10:29:42,0.08,1.83,0.57,24.83,27.08,30.35,14.37,48.55,1016.61,2028.99,2828.67,2613.12,2973.04,599.97,592.32,24.87,0000 0000 0000 0000 000000
2017-04-19 10:34:43,0.09,1.84,1.00,24.85,27.07,30.34,14.39,48.58,1016.61,2028.99,2826.89,2612.09,2971.89,599.95,592.28,24.92,0000 0000 0000 0000 000000
2017-04-19 10:39:45,0.08,1.84,1.00,24.92,27.05,30.32,14.32,48.48,1016.62,2028.99,2825.38,2611.13,2970.73,599.61,591.82,24.97,0000 0000 0000 0000 000000
2017-04-19 10:44:46,0.06,1.85,1.00,24.97,27.05,30.31,14.37,48.52,1016.61,2028.99,2824.25,2610.29,2969.82,599.99,592.11,25.02,0000 0000 0000 0000 000000
2017-04-19 10:49:47,0.06,1.85,1.00,24.92,27.02,30.29,14.33,48.43,1016.60,2029.00,2823.03,2609.62,2968.95,600.00,592.24,25.07,0000 0000 0000 0000 000000
2017-04-19 10:54:49,0.05,1.85,1.00,24.96,27.02,30.25,14.30,48.42,1016.60,2029.01,2821.81,2608.97,2968.07,599.98,592.08,25.12,0000 0000 0000 0000 000000
2017-04-19 10:59:50,0.06,1.85,0.43,25.03,27.01,30.26,14.34,48.48,1016.50,2029.01,2820.87,2608.20,2967.39,599.81,591.73,25.17,0000 0000 0000 0000 000000
2017-04-19 11:04:51,0.06,1.86,0.00,25.09,27.00,30.29,14.37,48.42,1016.38,2029.02,2819.82,2607.64,2966.50,600.13,591.88,25.22,0000 0000 0000 0000 000000
2017-04-19 11:09:53,0.06,1.86,0.00,25.11,26.99,30.29,14.35,48.44,1016.34,2029.02,2818.64,2606.92,2965.67,600.32,592.01,25.27,0000 0000 0000 0000 000000
2017-04-19 11:14:54,0.06,1.86,0.00,25.15,26.97,30.29,14.28,48.39,1016.32,2029.05,2817.47,2606.10,2964.95,599.91,591.45,25.32,0000 0000 0000 0000 000000
2017-04-19 11:19:56,0.06,1.87,0.00,25.21,26.97,30.29,14.24,48.35,1016.23,2029.12,2816.57,2605.63,2964.13,599.69,591.19,25.37,0000 0000 0000 0000 000000
2017-04-19 11:24:57,0.05,1.87,0.00,25.20,26.97,30.30,14.31,48.27,1016.19,2029.21,2815.49,2604.97,2963.34,599.99,591.37,25.42,0000 0000 0000 0000 000000
2017-04-19 11:29:58,0.10,1.87,0.00,25.14,26.95,30.33,14.30,48.29,1016.17,2029.20,2814.03,2604.00,2962.28,600.16,591.58,25.47,0000 0000 0000 0000 000000
2017-04-19 11:34:59,0.09,1.88,0.00,25.10,26.95,30.33,14.31,48.30,1016.18,2029.27,2812.32,2602.96,2961.07,599.98,591.57,25.52,0000 0000 0000 0000 000000
2017-04-19 11:40:01,0.09,1.88,0.00,25.07,26.95,30.33,14.35,48.24,1016.15,2029.41,2810.88,2602.04,2959.98,599.88,591.57,25.57,0000 0000 0000 0000 000000
2017-04-19 11:45:02,0.10,1.89,0.00,25.01,26.93,30.31,14.33,48.34,1016.15,2029.50,2809.38,2601.10,2958.87,600.06,591.70,25.62,0000 0000 0000 0000 000000
2017-04-19 11:50:04,0.11,1.90,0.00,25.02,26.92,30.30,14.37,48.33,1016.15,2029.82,2807.83,2600.15,2957.85,600.45,592.17,25.67,0000 0000 0000 0000 000000
2017-04-19 11:55:05,0.06,1.90,0.00,24.98,26.92,30.31,14.33,48.35,1016.15,2029.88,2806.66,2599.44,2956.94,599.95,591.62,25.72,0000 0000 0000 0000 000000
2017-04-19 12:00:07,0.06,1.90,0.00,24.96,26.90,30.30,14.45,48.41,1016.19,2029.89,2805.40,2598.71,2956.05,600.40,592.17,25.77,0000 0000 0000 0000 000000
2017-04-19 12:05:08,0.06,1.91,0.00,24.97,26.90,30.31,14.35,48.29,1016.20,2029.94,2804.35,2598.00,2955.26,599.87,591.77,25.82,0000 0000 0000 0000 000000
2017-04-19 12:10:09,0.06,1.91,0.00,24.95,26.90,30.27,14.32,48.40,1016.18,2029.94,2803.57,2597.28,2954.44,599.98,591.89,25.87,0000 0000 0000 0000 000000
2017-04-19 12:15:10,0.05,1.91,0.00,24.95,26.88,30.29,14.46,48.34,1016.17,2029.95,2802.49,2596.78,2953.70,600.30,592.20,25.92,0000 0000 0000 0000 000000
2017-04-19 12:20:11,0.05,1.91,0.00,24.94,26.87,30.27,14.35,48.37,1016.16,2029.95,2801.44,2596.03,2952.98,599.76,591.66,25.97,0000 0000 0000 0000 000000
2017-04-19 12:25:12,0.07,1.92,0.00,24.93,26.87,30.28,14.28,48.33,1016.13,2029.97,2800.34,2595.43,2952.15,599.63,591.43,26.02,0000 0000 0000 0000 000000
2017-04-19 12:30:14,0.03,1.92,0.00,24.93,26.86,30.27,14.32,48.38,1016.14,2029.97,2799.55,2594.91,2951.45,599.96,591.85,26.07,0000 0000 0000 0000 000000
2017-04-19 12:35:15,0.07,1.92,0.00,24.91,26.85,30.26,14.37,48.43,1016.13,2029.99,2798.31,2594.11,2950.70,600.15,592.04,26.12,0000 0000 0000 0000 000000
2017-04-19 12:40:16,0.03,1.93,0.00,24.87,26.84,30.27,14.39,48.38,1016.13,2029.99,2797.34,2593.74,2950.00,599.96,591.94,26.17,0000 0000 0000 0000 000000
2017-04-19 12:45:17,0.04,1.93,0.00,24.84,26.82,30.26,14.35,48.55,1016.13,2029.98,2796.84,2593.03,2949.30,599.95,592.00,26.22,0000 0000 0000 0000 000000
2017-04-19 12:50:18,0.03,1.93,0.00,24.80,26.82,30.27,14.36,48.38,1016.13,2029.97,2796.04,2592.78,2948.92,599.73,591.88,26.27,0000 0000 0000 0000 000000
2017-04-19 12:55:20,0.06,1.93,0.00,24.78,26.82,30.29,14.32,48.23,1016.13,2029.98,2795.31,2592.06,2948.12,599.86,592.08,26.32,0000 0000 0000 0000 000000